Location: Newark
(48.5667°N, 12.8167°E)
Time: 19:57:05
(UTC+00:00)

METEOR M2 - Visible Passes

Search period start: 17 November 2019 00:00
Search period end: 27 November 2019 00:00
Orbit: 819 x 827 km, 98.5° (Epoch: 17 November)

Date Brightness Start Highest point End Pass type
(mag) Time Alt. Az. Time Alt. Az. Time Alt. Az.
17 Nov ? 17:14:39 15° NNE 17:14:39 15° NNE 17:16:09 10° NNE visible
17 Nov ? 18:56:04 20° NNW 18:56:04 20° NNW 18:57:37 10° NNW visible
18 Nov ? 16:54:36 11° NE 16:54:36 11° NE 16:55:21 10° NNE visible
18 Nov ? 18:36:02 20° N 18:36:02 20° N 18:37:40 10° N visible
19 Nov ? 18:15:59 20° N 18:15:59 20° N 18:17:38 10° N visible
19 Nov ? 19:57:25 11° NW 19:57:25 11° NW 19:57:33 10° NNW visible
20 Nov ? 17:55:56 18° NNE 17:55:56 18° NNE 17:57:30 10° N visible
20 Nov ? 19:37:22 13° NNW 19:37:22 13° NNW 19:37:55 10° NNW visible
21 Nov ? 17:35:53 16° NNE 17:35:53 16° NNE 17:37:16 10° N visible
21 Nov ? 19:17:19 15° NNW 19:17:19 15° NNW 19:18:10 10° NNW visible
22 Nov ? 17:15:50 13° NNE 17:15:50 13° NNE 17:16:51 10° NNE visible
22 Nov ? 18:57:15 16° NNW 18:57:15 16° NNW 18:58:18 10° NNW visible
23 Nov ? 16:55:46 11° NNE 16:55:46 11° NNE 16:56:06 10° NNE visible
23 Nov ? 18:37:12 17° N 18:37:12 17° N 18:38:21 10° N visible
24 Nov ? 18:17:08 17° N 18:17:08 17° N 18:18:19 10° N visible
25 Nov ? 17:57:04 16° N 17:57:04 16° N 17:58:11 10° N visible
25 Nov ? 19:38:30 10° NNW 19:38:30 10° NNW 19:38:36 10° NNW visible
26 Nov ? 17:37:00 14° NNE 17:37:00 14° NNE 17:37:58 10° N visible
26 Nov ? 19:18:25 12° NNW 19:18:25 12° NNW 19:18:50 10° NNW visible
